Cloverdale, Indiana, United States (46120)
Lat: 39.51N, Lon: 86.79W
Wx Zone: INZ045
Local Info
Past Weather Observations for Saturday, September 24, 2016

NOTE: This archive is for the closest National Weather Service station to Cloverdale. Information may differ from the station used for current weather conditions.

Click here for Long-term Archive

Time Weather Temperature Dewpoint Humidity Pressure Winds Precip Visibility
23:53
Clear
72°F / 22°C 66°F / 19°C 83% 30.12 in
(1020 mb)
Calm - 10SM
22:53
Clear
72°F / 22°C 66°F / 19°C 83% 30.12 in
(1020 mb)
E 5.8 mph
(E 9 kph)
- 10SM
21:53
Clear
73°F / 23°C 66°F / 19°C 78% 30.12 in
(1020 mb)
E 4.6 mph
(E 7 kph)
- 10SM
20:53
Clear
70°F / 21°C 64°F / 18°C 83% 30.09 in
(1019 mb)
Variable 3.5 mph
(Variable 6 kph)
- 7SM
19:53
Clear
Fog And Mist
72°F / 22°C 68°F / 20°C 88% 30.09 in
(1019 mb)
Calm - 6SM
18:53
Clear
77°F / 25°C 68°F / 20°C 74% 30.09 in
(1019 mb)
ENE 3.5 mph
(ENE 6 kph)
- 10SM
17:53
Clear
82°F / 28°C 68°F / 20°C 62% 30.09 in
(1019 mb)
ENE 3.5 mph
(ENE 6 kph)
- 10SM
16:53
Clear
84°F / 29°C 66°F / 19°C 55% 30.09 in
(1019 mb)
E 3.5 mph
(E 6 kph)
- 10SM
15:53
Partly Cloudy
88°F / 31°C 66°F / 19°C 49% 30.09 in
(1019 mb)
NNE 3.5 mph
(NNE 6 kph)
- 10SM
14:53
Mostly Cloudy
84°F / 29°C 66°F / 19°C 55% 30.09 in
(1019 mb)
ENE 5.8 mph
(ENE 9 kph)
- 10SM
13:53
Partly Cloudy
88°F / 31°C 66°F / 19°C 49% 30.12 in
(1020 mb)
N 4.6 mph
(N 7 kph)
- 10SM
12:53
Partly Cloudy
84°F / 29°C 66°F / 19°C 55% 30.15 in
(1021 mb)
E 3.5 mph
(E 6 kph)
- 10SM
11:53
Clear
82°F / 28°C 68°F / 20°C 62% 30.15 in
(1021 mb)
Calm - 10SM
10:53
Clear
81°F / 27°C 66°F / 19°C 62% 30.15 in
(1021 mb)
E 3.5 mph
(E 6 kph)
- 10SM
09:53
Clear
77°F / 25°C 66°F / 19°C 69% 30.15 in
(1021 mb)
E 3.5 mph
(E 6 kph)
- 10SM
08:53
Clear
73°F / 23°C 66°F / 19°C 78% 30.15 in
(1021 mb)
Calm - 10SM
07:53
Clear
Fog And Mist
70°F / 21°C 64°F / 18°C 83% 30.15 in
(1021 mb)
Calm - 5SM
07:10
Clear
Fog And Mist
63°F / 17°C 59°F / 15°C 88% 30.15 in
(1021 mb)
Calm - 5SM
07:07
Clear
Fog And Mist
61°F / 16°C 59°F / 15°C 94% 30.15 in
(1021 mb)
Calm - 1 3/4SM
07:00
Clear
Fog And Mist
61°F / 16°C 59°F / 15°C 94% 30.15 in
(1021 mb)
Calm - 2SM
06:53
Clear
Fog And Mist
61°F / 16°C 57°F / 14°C 88% 30.12 in
(1020 mb)
Calm - 4SM
06:19
Clear
Fog And Mist
61°F / 16°C 59°F / 15°C 94% 30.12 in
(1020 mb)
Calm - 4SM
06:10
Clear
Fog And Mist
61°F / 16°C 59°F / 15°C 94% 30.12 in
(1020 mb)
Calm - 2 1/2SM
05:53
Clear
Fog And Mist
63°F / 17°C 61°F / 16°C 94% 30.12 in
(1020 mb)
Calm - 5SM
05:28
Clear
Fog And Mist
63°F / 17°C 61°F / 16°C 94% 30.09 in
(1019 mb)
Calm - 5SM
05:15
Clear
Fog And Mist
63°F / 17°C 61°F / 16°C 94% 30.09 in
(1019 mb)
Calm - 1 3/4SM
04:53
Clear
Fog And Mist
63°F / 17°C 59°F / 15°C 88% 30.09 in
(1019 mb)
SW 3.5 mph
(SW 6 kph)
- 3SM
04:41
Clear
Fog And Mist
61°F / 16°C 59°F / 15°C 94% 30.09 in
(1019 mb)
Calm - 3SM
04:29
Clear
Fog And Mist
61°F / 16°C 59°F / 15°C 94% 30.09 in
(1019 mb)
Calm - 1 1/2SM
04:27
Clear
Fog And Mist
63°F / 17°C 61°F / 16°C 94% 30.09 in
(1019 mb)
Calm - 3SM
04:15
Clear
Fog And Mist
63°F / 17°C 61°F / 16°C 94% 30.09 in
(1019 mb)
Calm - 2 1/2SM
03:53
Clear
Fog And Mist
63°F / 17°C 61°F / 16°C 94% 30.09 in
(1019 mb)
Calm - 1 3/4SM
03:42
Clear
Fog And Mist
63°F / 17°C 61°F / 16°C 94% 30.09 in
(1019 mb)
Calm - 2SM
03:30
Clear
Fog And Mist
64°F / 18°C 63°F / 17°C 94% 30.09 in
(1019 mb)
Calm - 3/4SM
02:53
Clear
Fog And Mist
64°F / 18°C 63°F / 17°C 94% 30.09 in
(1019 mb)
Calm - 5SM
01:53
Clear
Fog And Mist
63°F / 17°C 61°F / 16°C 94% 30.09 in
(1019 mb)
Variable 4.6 mph
(Variable 7 kph)
- 3SM
01:35
Clear
Fog And Mist
64°F / 18°C 63°F / 17°C 94% 30.09 in
(1019 mb)
Calm - 2SM
01:06
Clear
Fog And Mist
63°F / 17°C 61°F / 16°C 94% 30.09 in
(1019 mb)
Calm - 5SM
00:53
Clear
Fog And Mist
64°F / 18°C 63°F / 17°C 94% 30.09 in
(1019 mb)
Calm - 2SM
00:51
Clear
Fog And Mist
64°F / 18°C 63°F / 17°C 94% 30.09 in
(1019 mb)
Calm - 2SM
Time Weather Temperature Dewpoint Humidity Pressure Winds Precip Visibility


Weather for websites

WeatherForYou.com, LLC is not responsible for any damages or problems caused by this service. Current weather conditions are obtained from the closest station including government and personal stations which may have varying degrees of accuracy. Weather forecasts are derived from the NOAA NDFD. Like all things, this site belongs to Jesus Christ... He just trusts us to maintain it. If you have any questions or comments email webmaster@weatherforyou.com

Copyright © 2016, WeatherForYou.com LLC. All rights reserved.